DW3982 Weather Reports


time (UTC)temp
C
wind
direction
speed
KPH
gust
KPH
rain 1hr
cm
rain 24hr
cm
rain mn
cm
humidity
%
barometer
mb
20260504081927 8 330 3.2 4.8 0.00 0.00 0.00 61 1014.7
20260504081424 8 282 6.4 9.7 0.00 0.00 0.00 60 1014.8
20260504080920 8 285 3.2 8.0 0.00 0.00 0.00 60 1014.8
20260504080417 8 340 1.6 4.8 0.00 0.00 0.00 61 1014.6
20260504070344 8 286 9.7 9.7 0.00 0.00 0.00 58 1015.0
20260504050732 10 294 9.7 12.9 0.00 0.00 0.00 54 1014.9
20260504050229 10 269 3.2 3.2 0.00 0.00 0.00 54 1015.0
20260504045726 10 271 4.8 8.0 0.00 0.00 0.00 55 1015.0
20260504045221 10 266 9.7 14.5 0.00 0.00 0.00 55 1014.8
20260504044719 10 245 6.4 9.7 0.00 0.00 0.00 55 1015.0
20260504044217 10 292 8.0 8.0 0.00 0.00 0.00 55 1015.1
20260504043714 10 29 11.3 17.7 0.00 0.00 0.00 55 1014.8
20260504043210 10 284 4.8 4.8 0.00 0.00 0.00 56 1014.8
20260504042708 10 274 8.0 12.9 0.00 0.00 0.00 55 1014.7
20260504042204 10 214 4.8 8.0 0.00 0.00 0.00 54 1014.9
20260504041700 10 229 3.2 8.0 0.00 0.00 0.00 54 1015.0
20260504041156 10 288 4.8 9.7 0.00 0.00 0.00 53 1014.8
20260504040653 10 264 14.5 19.3 0.00 0.00 0.00 53 1014.9
20260504040150 10 316 9.7 12.9 0.00 0.00 0.00 53 1014.7
20260504035647 10 308 9.7 14.5 0.00 0.00 0.00 53 1014.7
20260504035144 10 326 6.4 8.0 0.00 0.00 0.00 53 1014.7
20260504034641 10 317 3.2 8.0 0.00 0.00 0.00 55 1014.8
20260504034138 10 295 3.2 4.8 0.00 0.00 0.00 54 1014.6
20260504033636 10 296 4.8 8.0 0.00 0.00 0.00 53 1014.6
20260504033133 10 232 3.2 4.8 0.00 0.00 0.00 53 1014.7
20260504032629 10 199 3.2 4.8 0.00 0.00 0.00 53 1014.8
20260504032127 10 254 8.0 9.7 0.00 0.00 0.00 53 1014.5
20260504031624 10 321 3.2 4.8 0.00 0.00 0.00 53 1014.5
20260504031120 10 223 0.0 3.2 0.00 0.00 0.00 54 1014.5
20260504030617 11 289 3.2 4.8 0.00 0.00 0.00 50 1014.7
20260504030114 11 302 6.4 8.0 0.00 0.00 0.00 50 1014.3
20260504025610 10 250 1.6 3.2 0.00 0.00 0.00 51 1014.8
20260504025108 10 351 3.2 3.2 0.00 0.00 0.00 51 1014.2
20260504024605 11 317 1.6 4.8 0.00 0.00 0.00 51 1014.3
20260504024101 11 285 4.8 8.0 0.00 0.00 0.00 50 1014.3
20260504023557 11 350 4.8 4.8 0.00 0.00 0.00 49 1014.5
20260504023053 11 259 4.8 8.0 0.00 0.00 0.00 51 1014.3
20260504022550 11 301 3.2 4.8 0.00 0.00 0.00 48 1014.7
20260504022046 11 282 3.2 3.2 0.00 0.00 0.00 47 1014.3
20260504021544 11 300 1.6 3.2 0.00 0.00 0.00 48 1014.5
20260504021040 11 274 3.2 4.8 0.00 0.00 0.00 47 1014.6
20260504020537 11 276 4.8 8.0 0.00 0.00 0.00 47 1014.2
20260504020034 11 300 6.4 8.0 0.00 0.00 0.00 47 1014.5
20260504015530 11 309 1.6 3.2 0.00 0.00 0.00 47 1014.2
20260504015026 11 250 1.6 3.2 0.00 0.00 0.00 47 1014.3
20260504014523 11 297 3.2 4.8 0.00 0.00 0.00 46 1014.5
20260504014020 12 309 1.6 3.2 0.00 0.00 0.00 46 1014.3
20260504013518 12 305 8.0 8.0 0.00 0.00 0.00 45 1014.5
20260504013014 12 312 3.2 4.8 0.00 0.00 0.00 45 1014.2
20260504012512 12 341 4.8 4.8 0.00 0.00 0.00 44 1014.1
20260504012010 12 274 4.8 4.8 0.00 0.00 0.00 44 1014.1
20260504011506 12 244 1.6 3.2 0.00 0.00 0.00 44 1014.2
20260504011002 12 278 1.6 3.2 0.00 0.00 0.00 44 1013.9
20260504010458 12 307 3.2 3.2 0.00 0.00 0.00 44 1014.0
20260504005954 12 1 4.8 4.8 0.00 0.00 0.00 43 1014.0
20260504005451 12 333 3.2 4.8 0.00 0.00 0.00 44 1014.0
20260504004948 12 317 8.0 9.7 0.00 0.00 0.00 43 1013.9
20260504004446 12 312 6.4 9.7 0.00 0.00 0.00 42 1013.9
20260504003943 12 333 4.8 8.0 0.00 0.00 0.00 42 1013.9
20260504003439 12 326 4.8 4.8 0.00 0.00 0.00 42 1013.8
20260504002936 12 316 4.8 8.0 0.00 0.00 0.00 43 1014.0
20260504002433 12 305 4.8 4.8 0.00 0.00 0.00 43 1013.8
20260504001930 13 329 4.8 8.0 0.00 0.00 0.00 42 1013.6
20260504001427 13 323 3.2 4.8 0.00 0.00 0.00 42 1013.7
20260504000924 13 307 6.4 8.0 0.00 0.00 0.00 41 1013.4
20260504000423 13 289 4.8 4.8 0.00 0.00 0.00 41 1013.7
20260503235918 13 269 1.6 3.2 0.00 0.00 0.00 42 1013.4
20260503235416 13 356 4.8 8.0 0.00 0.00 0.00 40 1013.3
20260503234914 13 31 12.9 14.5 0.00 0.00 0.00 40 1013.3
20260503234411 13 140 3.2 4.8 0.00 0.00 0.00 41 1013.1
20260503233909 14 298 4.8 8.0 0.00 0.00 0.00 39 1013.1
20260503233405 15 294 3.2 4.8 0.00 0.00 0.00 40 1013.2
20260503232901 15 8 4.8 4.8 0.00 0.00 0.00 39 1013.2
20260503232359 15 306 8.0 9.7 0.00 0.00 0.00 38 1013.4
20260503231856 15 347 6.4 8.0 0.00 0.00 0.00 38 1013.3
20260503231353 15 339 6.4 8.0 0.00 0.00 0.00 39 1013.1
20260503230849 15 324 4.8 9.7 0.00 0.00 0.00 38 1013.0
20260503230346 15 328 11.3 12.9 0.00 0.00 0.00 37 1013.1
20260503225844 15 277 9.7 12.9 0.00 0.00 0.00 37 1013.1
20260503225340 15 305 9.7 17.7 0.00 0.00 0.00 37 1013.2
20260503224836 15 326 16.1 22.5 0.00 0.00 0.00 37 1013.3
20260503224334 15 326 8.0 9.7 0.00 0.00 0.00 38 1013.1
20260503223831 15 31 11.3 14.5 0.00 0.00 0.00 36 1013.1
20260503223329 15 276 14.5 17.7 0.00 0.00 0.00 36 1013.1
20260503222824 15 346 12.9 19.3 0.00 0.00 0.00 36 1012.9
20260503222323 16 102 3.2 3.2 0.00 0.00 0.00 38 1013.1
20260503221820 15 358 8.0 9.7 0.00 0.00 0.00 37 1013.0
20260503221319 15 6 14.5 22.5 0.00 0.00 0.00 35 1013.0
20260503220815 15 5 17.7 32.2 0.00 0.00 0.00 36 1013.0
20260503220312 15 132 12.9 17.7 0.00 0.00 0.00 36 1013.2
20260503215808 15 332 8.0 9.7 0.00 0.00 0.00 36 1013.3
20260503215306 15 9 24.1 32.2 0.00 0.00 0.00 37 1013.2
20260503214804 15 327 20.9 27.4 0.00 0.00 0.00 36 1013.3
20260503214300 15 21 24.1 32.2 0.00 0.00 0.00 36 1013.2
20260503213758 15 12 17.7 24.1 0.00 0.00 0.00 36 1013.0
20260503213255 15 332 27.4 37.0 0.00 0.00 0.00 35 1013.0
20260503212752 15 323 11.3 17.7 0.00 0.00 0.00 38 1013.1
20260503212250 15 352 14.5 17.7 0.00 0.00 0.00 37 1012.9
20260503211747 15 324 24.1 32.2 0.00 0.00 0.00 37 1012.8
20260503211243 15 282 9.7 14.5 0.00 0.00 0.00 37 1012.9
20260503210738 15 303 17.7 30.6 0.00 0.00 0.00 36 1013.1
20260503210236 15 353 8.0 14.5 0.00 0.00 0.00 38 1013.1
20260503205731 15 342 9.7 12.9 0.00 0.00 0.00 37 1013.0
20260503205228 15 320 9.7 17.7 0.00 0.00 0.00 38 1012.9
20260503204724 15 0 19.3 24.1 0.00 0.00 0.00 37 1013.1
20260503204222 14 32 27.4 35.4 0.00 0.00 0.00 36 1013.2
20260503203719 15 356 11.3 14.5 0.00 0.00 0.00 36 1013.1
20260503203217 15 1 14.5 19.3 0.00 0.00 0.00 37 1013.1
20260503202714 15 0 16.1 19.3 0.00 0.00 0.00 38 1013.1
20260503202212 15 316 14.5 17.7 0.00 0.00 0.00 38 1013.0
20260503201709 15 304 17.7 24.1 0.00 0.00 0.00 36 1013.3
20260503201207 15 109 14.5 24.1 0.00 0.00 0.00 36 1013.1
20260503200703 14 323 11.3 19.3 0.00 0.00 0.00 38 1013.2
20260503200159 15 346 19.3 30.6 0.00 0.00 0.00 36 1013.4
20260503195656 15 4 3.2 4.8 0.00 0.00 0.00 41 1013.4
20260503195153 13 329 20.9 30.6 0.00 0.00 0.00 38 1013.4
20260503194650 13 25 12.9 14.5 0.00 0.00 0.00 39 1013.6
20260503194145 14 318 17.7 30.6 0.00 0.00 0.00 37 1013.5
20260503193643 14 326 20.9 30.6 0.00 0.00 0.00 38 1013.6
20260503193138 13 310 20.9 30.6 0.00 0.00 0.00 38 1013.6
20260503192634 13 348 20.9 24.1 0.00 0.00 0.00 37 1013.7
20260503192130 15 340 17.7 27.4 0.00 0.00 0.00 37 1013.8
20260503191627 15 49 3.2 4.8 0.00 0.00 0.00 37 1013.8
20260503191124 14 346 14.5 17.7 0.00 0.00 0.00 38 1013.8
20260503190621 13 331 14.5 19.3 0.00 0.00 0.00 37 1013.8
20260503190118 13 319 25.7 32.2 0.00 0.00 0.00 37 1013.8
20260503185614 13 332 30.6 32.2 0.00 0.00 0.00 37 1014.1
20260503185114 13 307 12.9 17.7 0.00 0.00 0.00 38 1014.3
20260503184610 13 350 22.5 27.4 0.00 0.00 0.00 38 1014.3
20260503184107 13 48 14.5 24.1 0.00 0.00 0.00 39 1014.5
20260503183603 13 8 16.1 24.1 0.00 0.00 0.00 38 1014.2
20260503183101 13 5 14.5 17.7 0.00 0.00 0.00 37 1014.5
20260503182559 13 353 17.7 27.4 0.00 0.00 0.00 38 1014.2
20260503182056 13 353 9.7 12.9 0.00 0.00 0.00 40 1014.3
20260503181553 13 0 9.7 17.7 0.00 0.00 0.00 39 1014.2
20260503181050 13 318 25.7 40.2 0.00 0.00 0.00 40 1014.5
20260503180547 13 303 16.1 19.3 0.00 0.00 0.00 40 1014.3
20260503180044 12 5 6.4 9.7 0.00 0.00 0.00 41 1014.5
20260503175541 12 343 24.1 35.4 0.00 0.00 0.00 40 1014.5
20260503175039 11 129 9.7 12.9 0.00 0.00 0.00 44 1014.7
20260503174536 13 344 24.1 35.4 0.00 0.00 0.00 42 1014.9
20260503174032 12 117 4.8 8.0 0.00 0.00 0.00 44 1014.6
20260503173527 12 23 8.0 9.7 0.00 0.00 0.00 44 1014.8
20260503173024 12 39 11.3 14.5 0.00 0.00 0.00 42 1014.7
20260503172521 12 16 11.3 14.5 0.00 0.00 0.00 42 1015.0
20260503172018 12 56 8.0 9.7 0.00 0.00 0.00 44 1014.6
20260503171515 11 321 17.7 27.4 0.00 0.00 0.00 43 1015.0
20260503171012 11 354 14.5 17.7 0.00 0.00 0.00 43 1014.7
20260503170508 11 302 35.4 41.8 0.00 0.00 0.00 42 1014.9
20260503150901 10 58 17.7 27.4 0.00 0.00 0.00 45 1015.7
20260503150357 10 24 24.1 32.2 0.00 0.00 0.00 43 1015.8
20260503131250 7 10 9.7 14.5 0.00 0.00 0.00 60 1016.1
20260503130748 7 346 17.7 22.5 0.00 0.00 0.00 59 1016.0
20260503130245 7 318 9.7 14.5 0.00 0.00 0.00 61 1016.1
20260503120211 6 271 6.4 9.7 0.00 0.00 0.00 67 1015.5
20260503110638 4 321 4.8 8.0 0.00 0.00 0.00 70 1015.1
20260503110136 4 333 11.3 14.5 0.00 0.00 0.00 70 1015.1